Location: Ballingbuur
(53.0000°N, 5.7667°E)
Time: 07:06:36
(UTC+00:00)

CZ-4B DEB - Pass Details

Date: 29 November 2020
Orbit: 841 x 861 km, 99.1° (Epoch: 23 January)

Event Time Altitude Azimuth Distance (km) Brightness Sun altitude
Rises 06:07:27 0° 15° (NNE) 3,412 7.3 -11.0°
Reaches altitude 10° 06:09:49 10° 13° (NNE) 2,473 6.6 -10.7°
Maximum altitude 06:15:16 73° 291° (WNW) 884 4.1 -9.9°
Drops below altitude 10° 06:20:43 10° 207° (SSW) 2,461 6.6 -9.2°
Sets 06:23:04 0° 205° (SSW) 3,395 7.3 -8.9°
